Weather History for Lander, WY

Change the Weather History Date:

Friday, September 27, 2013

  Actual Average Record
Temperature  
Mean Temperature 34 °F 53 °F  
Max Temperature 37 °F 67 °F 87 °F (2001)
Min Temperature 30 °F 40 °F 19 °F (1908)
Degree Days  
Heating Degree Days 31 12  
Month to date heating degree days 152 181  
Since 1 July heating degree days 152 221  
Cooling Degree Days 0 0  
Month to date cooling degree days 65 26  
Year to date cooling degree days 743 471  
Moisture  
Dew Point 33 °F    
Average Humidity 91    
Maximum Humidity 100    
Minimum Humidity 82    
Precipitation  
Precipitation 0.31 in 0.05 in 2.87 in (1923)
Month to date precipitation 3.78 0.92  
Year to date precipitation 11.64 9.80  
Snow  
Snow 4.10 in 0.20 in - ()
Month to date snowfall 4.1 2.2  
Since 1 July snowfall 4.1 2.2  
Since 1 September snowfall 4.1 2.2  
Snow Depth -    
Sea Level Pressure  
Sea Level Pressure 29.96 in    
Wind  
Wind Speed 3 mph (SSW)    
Max Wind Speed 9 mph    
Max Gust Speed 12 mph    
Visibility 4 miles    
Events Fog , Rain , Snow    
T = Trace of Precipitation, MM = Missing Value Source: NWS Daily Summary

Daily Weather History Graph

Daily Weather History Graph

Search for Another Location

Airport:

Trip Planner

Search our weather history database for the weather conditions in past years. The results will help you decide how hot, cold, wet, or windy it might be!

Date:

Astronomy

Sep. 27, 2013 Rise Set
Actual Time 7:08 AM MDT 7:02 PM MDT
Civil Twilight 6:39 AM MDT 7:30 PM MDT
Nautical Twilight 6:06 AM MDT 8:03 PM MDT
Astronomical Twilight 5:33 AM MDT 8:37 PM MDT
Moon No Moon Rise 2:50 PM MDT (9/27)
Length of Visible Light 12h 51m
Length of Day
11h 54m
Last Quarter, 44% of the Moon is Illuminated
Sep 27
Last Quarter
Oct 4
New
Oct 11
First Quarter
Oct 18
Full
Oct 26
Last Quarter

Hourly Weather History & Observations

Time (MDT) Temp. Windchill Dew Point Humidity Pressure Visibility Wind Dir Wind Speed Gust Speed Precip Events Conditions
12:14 AM 32.0 °F 28.7 °F 32.0 °F 100% 29.95 in 1.2 mi Variable 3.5 mph - 0.02 in Snow Light Snow
12:23 AM 32.0 °F - 32.0 °F 100% 29.95 in 0.5 mi Calm Calm - 0.04 in Fog , Snow Snow
12:35 AM 32.0 °F - 32.0 °F 100% 29.96 in 0.2 mi Calm Calm - 0.06 in Fog , Snow Heavy Snow
12:53 AM 32.0 °F - 32.0 °F 100% 29.94 in 0.8 mi Calm Calm - 0.09 in Snow Light Snow
1:12 AM 32.0 °F - 32.0 °F 100% 29.94 in 0.8 mi Calm Calm - 0.03 in Snow Light Snow
1:31 AM 32.0 °F 28.7 °F 32.0 °F 100% 29.94 in 1.0 mi SW 3.5 mph - 0.04 in Snow Light Snow
1:43 AM 32.0 °F - 32.0 °F 100% 29.94 in 2.0 mi Calm Calm - 0.04 in Snow Light Snow
1:53 AM 32.0 °F - 32.0 °F 100% 29.94 in 1.8 mi Calm Calm - 0.05 in Snow Light Snow
2:29 AM 32.0 °F - 32.0 °F 100% 29.93 in 0.5 mi Calm Calm - 0.02 in Fog , Snow Light Snow
2:46 AM 32.0 °F 28.7 °F 32.0 °F 100% 29.91 in 2.5 mi WNW 3.5 mph - 0.03 in Snow Light Snow
2:53 AM 32.0 °F 28.7 °F 32.0 °F 100% 29.90 in 4.0 mi WSW 3.5 mph - 0.03 in Snow Light Snow
3:26 AM 32.0 °F 26.4 °F 32.0 °F 100% 29.92 in 2.5 mi West 5.8 mph - 0.02 in Snow Light Snow
3:36 AM 32.0 °F - 32.0 °F 100% 29.92 in 2.0 mi Calm Calm - 0.02 in Snow Light Snow
3:45 AM 33.8 °F - 33.8 °F 100% 29.91 in 1.8 mi Calm Calm - 0.03 in Snow Light Snow
3:53 AM 32.0 °F - 32.0 °F 100% 29.92 in 1.2 mi Calm Calm - 0.04 in Snow Light Snow
4:53 AM 32.0 °F - 32.0 °F 100% 29.93 in 0.8 mi Calm Calm - 0.05 in Snow Light Snow
5:48 AM 32.0 °F 28.7 °F 32.0 °F 100% 29.92 in 1.0 mi WSW 3.5 mph - 0.07 in Snow Light Snow
5:53 AM 32.0 °F 27.5 °F 32.0 °F 100% 29.94 in 1.0 mi West 4.6 mph - 0.08 in Snow Light Snow
6:16 AM 32.0 °F 26.4 °F 32.0 °F 100% 29.91 in 2.0 mi West 5.8 mph - 0.02 in Snow Light Snow
6:26 AM 32.0 °F 28.7 °F 32.0 °F 100% 29.91 in 1.5 mi West 3.5 mph - 0.02 in Snow Light Snow
6:42 AM 32.0 °F - 32.0 °F 100% 29.91 in 1.2 mi Calm Calm - 0.04 in Snow Light Snow
6:53 AM 32.0 °F 27.5 °F 32.0 °F 100% 29.93 in 1.5 mi West 4.6 mph - 0.05 in Snow Light Snow
7:03 AM 32.0 °F 25.6 °F 32.0 °F 100% 29.91 in 2.5 mi WSW 6.9 mph - 0.00 in Snow Light Snow
7:11 AM 32.0 °F 25.6 °F 32.0 °F 100% 29.91 in 4.0 mi WSW 6.9 mph - 0.00 in Snow Light Snow
7:31 AM 33.8 °F 29.6 °F 33.8 °F 100% 29.91 in 1.8 mi SW 4.6 mph - 0.01 in Snow Light Snow
7:53 AM 33.1 °F - 32.0 °F 96% 29.96 in 1.8 mi Calm Calm - 0.01 in Snow Light Snow
7:57 AM 33.8 °F - 32.0 °F 93% 29.92 in 2.0 mi Calm Calm - 0.01 in Snow Light Snow
8:05 AM 33.8 °F - 33.8 °F 100% 29.92 in 1.8 mi Calm Calm - 0.01 in Snow Light Snow
8:17 AM 32.0 °F - 32.0 °F 100% 29.93 in 0.5 mi Calm Calm - 0.02 in Fog , Snow Snow
8:32 AM 33.8 °F - 33.8 °F 100% 29.92 in 0.8 mi Calm Calm - 0.03 in Snow Light Snow
8:41 AM 33.8 °F 30.8 °F 33.8 °F 100% 29.92 in 1.0 mi SSW 3.5 mph - 0.04 in Snow Light Snow
8:53 AM 32.0 °F 28.7 °F 32.0 °F 100% 29.98 in 2.0 mi SSW 3.5 mph - 0.04 in Snow Light Snow
9:13 AM 33.8 °F - 33.8 °F 100% 29.92 in 0.8 mi Calm Calm - 0.01 in Snow Light Snow
9:30 AM 33.8 °F - 33.8 °F 100% 29.93 in 1.8 mi Calm Calm - 0.01 in Snow Light Snow
9:34 AM 33.8 °F 30.8 °F 33.8 °F 100% 29.93 in 3.0 mi NW 3.5 mph - 0.01 in Snow Light Snow
9:53 AM 34.0 °F 31.0 °F 33.1 °F 96% 29.97 in 4.0 mi NNW 3.5 mph - 0.01 in   Mist
10:10 AM 33.8 °F - 33.8 °F 100% 29.93 in 1.8 mi Calm Calm - 0.00 in   Overcast
10:18 AM 33.8 °F 30.8 °F 33.8 °F 100% 29.93 in 0.2 mi North 3.5 mph - 0.00 in Fog Fog
10:32 AM 33.8 °F - 33.8 °F 100% 29.93 in 0.2 mi Calm Calm - 0.00 in Fog Fog
10:39 AM 33.8 °F - 33.8 °F 100% 29.94 in 0.2 mi Calm Calm - 0.00 in Fog Fog
10:53 AM 34.0 °F - 34.0 °F 100% 29.98 in 0.2 mi Calm Calm - 0.00 in Fog Fog
11:19 AM 35.6 °F - 33.8 °F 93% 29.94 in 2.0 mi Calm Calm - 0.00 in   Overcast
11:27 AM 35.6 °F - 33.8 °F 93% 29.95 in 0.5 mi Calm Calm - 0.00 in Fog Fog
11:40 AM 35.6 °F 31.7 °F 33.8 °F 93% 29.94 in 1.0 mi NW 4.6 mph - 0.00 in   Overcast
11:43 AM 35.6 °F 30.7 °F 33.8 °F 93% 29.94 in 5.0 mi WNW 5.8 mph - 0.00 in   Overcast
11:53 AM 36.0 °F - 34.0 °F 93% 29.99 in 9.0 mi Calm Calm - 0.00 in Rain Light Rain
12:15 PM 35.6 °F - 33.8 °F 93% 29.94 in 8.0 mi Calm Calm - 0.00 in Rain Light Rain
12:19 PM 35.6 °F 31.7 °F 33.8 °F 93% 29.95 in 1.0 mi ENE 4.6 mph - 0.00 in Rain Light Rain
12:26 PM 35.6 °F - 33.8 °F 93% 29.95 in 0.5 mi Calm Calm - 0.00 in Fog , Rain Light Rain
12:31 PM 35.6 °F - 33.8 °F 93% 29.95 in 2.0 mi Calm Calm - 0.00 in Rain Light Rain
12:39 PM 35.6 °F - 35.6 °F 100% 29.95 in 3.0 mi Calm Calm - 0.00 in Rain Light Rain
12:46 PM 35.6 °F - 35.6 °F 100% 29.95 in 2.5 mi Calm Calm - 0.00 in Rain Light Rain
12:53 PM 35.1 °F - 35.1 °F 100% 29.99 in 1.0 mi Calm Calm - 0.00 in Rain Light Rain
1:00 PM 35.6 °F - 35.6 °F 100% 29.95 in 4.0 mi Calm Calm - 0.00 in   Overcast
1:20 PM 35.6 °F 32.8 °F 33.8 °F 93% 29.95 in 10.0 mi South 3.5 mph - 0.00 in   Overcast
1:53 PM 36.0 °F 30.3 °F 32.0 °F 86% 29.99 in 10.0 mi ESE 6.9 mph - 0.00 in   Overcast
2:18 PM 35.6 °F 30.7 °F 33.8 °F 93% 29.95 in 7.0 mi ESE 5.8 mph - N/A   Overcast
2:53 PM 36.0 °F 31.1 °F 33.1 °F 89% 30.00 in 10.0 mi ESE 5.8 mph - N/A   Overcast
3:04 PM 35.6 °F 30.7 °F 32.0 °F 87% 29.96 in 10.0 mi SE 5.8 mph - N/A   Overcast
3:11 PM 35.6 °F 31.7 °F 33.8 °F 93% 29.96 in 10.0 mi SE 4.6 mph - N/A   Overcast
3:53 PM 36.0 °F 30.3 °F 33.1 °F 89% 30.01 in 8.0 mi SE 6.9 mph - 0.00 in   Overcast
4:01 PM 35.6 °F 29.9 °F 32.0 °F 87% 29.98 in 8.0 mi SE 6.9 mph - 0.00 in Rain Light Rain
4:27 PM 37.4 °F 32.8 °F 33.8 °F 87% 29.98 in 10.0 mi SE 5.8 mph - 0.00 in   Mostly Cloudy
4:53 PM 36.0 °F 29.6 °F 33.1 °F 89% 30.02 in 10.0 mi SSE 8.1 mph - 0.00 in   Mostly Cloudy
5:03 PM 35.6 °F 28.6 °F 33.8 °F 93% 29.98 in 10.0 mi SSE 9.2 mph - N/A   Scattered Clouds
5:53 PM 36.0 °F 31.1 °F 32.0 °F 86% 30.04 in 10.0 mi SE 5.8 mph - N/A   Overcast
6:53 PM 35.1 °F 31.0 °F 33.1 °F 92% 30.04 in 10.0 mi ESE 4.6 mph - N/A   Mostly Cloudy
7:53 PM 34.0 °F 31.0 °F 33.1 °F 96% 30.06 in 10.0 mi East 3.5 mph - N/A   Mostly Cloudy
8:53 PM 33.1 °F 27.7 °F 30.9 °F 92% 30.07 in 10.0 mi WSW 5.8 mph - N/A   Clear
9:53 PM 32.0 °F - 30.0 °F 92% 30.08 in 10.0 mi Calm Calm - N/A   Clear
10:53 PM 33.1 °F 26.1 °F 28.9 °F 85% 30.07 in 10.0 mi WSW 8.1 mph - N/A   Clear
11:53 PM 30.0 °F 26.5 °F 28.9 °F 96% 30.08 in 10.0 mi SSE 3.5 mph - N/A   Clear